KD5OH Weather Reports


Display with metric or nautical units.
time (UTC)temp
F
wind
direction
speed
MPH
gust
MPH
rain 1hr
in
rain 24hr
in
rain mn
in
humidity
%
barometer
mb
20260904173140 86 311 1.0 7.0 0.00 0.00 0.00 36 1019.9
20260904171635 83 241 2.0 7.0 0.00 0.00 0.00 40 1020.2
20260904170127 82 19 2.0 6.0 0.00 0.00 0.00 44 1020.4
20260904164621 80 77 0.0 2.0 0.00 0.00 0.00 46 1020.4
20260904163134 78 163 1.0 4.0 0.00 0.00 0.00 48 1020.4
20260904161646 78 142 2.0 5.0 0.00 0.00 0.00 49 1020.5
20260904160141 76 102 2.0 5.0 0.00 0.00 0.00 52 1020.2
20260904154653 75 166 2.0 5.0 0.00 0.00 0.00 54 1020.3
20260904153127 75 161 2.0 6.0 0.00 0.00 0.00 54 1020.3
20260904151640 75 165 3.0 6.0 0.00 0.00 0.00 53 1020.2
20260904150136 75 151 3.0 7.0 0.00 0.00 0.00 54 1020.2
20260904144627 75 139 3.0 7.0 0.00 0.00 0.00 54 1020.2
20260904143159 75 135 3.0 6.0 0.00 0.00 0.00 54 1020.2
20260904141632 75 142 3.0 6.0 0.00 0.00 0.00 54 1019.8
20260904140143 75 137 3.0 8.0 0.00 0.00 0.00 55 1019.9
20260904134638 74 140 6.0 11.0 0.00 0.00 0.00 56 1019.8
20260904133130 73 142 6.0 8.0 0.00 0.00 0.00 57 1019.7
20260904131643 72 131 3.0 7.0 0.00 0.00 0.00 59 1019.5
20260904130138 71 118 3.0 6.0 0.00 0.00 0.00 60 1019.3
20260904124629 71 129 3.0 7.0 0.00 0.00 0.00 60 1019.2
20260904123124 71 128 4.0 7.0 0.00 0.00 0.00 60 1019.1
20260904121635 71 128 5.0 10.0 0.00 0.00 0.00 59 1019.0
20260904120131 72 117 4.0 7.0 0.00 0.00 0.00 59 1018.9
20260904114624 72 129 3.0 8.0 0.00 0.00 0.00 59 1018.8
20260904113136 72 128 3.0 6.0 0.00 0.00 0.00 59 1018.6
20260904111651 72 96 1.0 3.0 0.00 0.00 0.00 59 1018.5
20260904110141 73 157 2.0 5.0 0.00 0.00 0.00 58 1018.4
20260904104637 73 168 0.0 2.0 0.00 0.00 0.00 57 1018.4
20260904103128 74 153 2.0 8.0 0.00 0.00 0.00 56 1018.2
20260904101641 75 140 4.0 9.0 0.00 0.00 0.00 55 1018.0
20260904100135 75 142 4.0 8.0 0.00 0.00 0.00 55 1018.1
20260904094626 75 132 6.0 11.0 0.00 0.00 0.00 53 1018.0
20260904093121 75 144 9.0 14.0 0.00 0.00 0.00 52 1018.1
20260904091632 76 137 6.0 12.0 0.00 0.00 0.00 51 1018.3
20260904090127 76 121 11.0 17.0 0.00 0.00 0.00 49 1018.3
20260904084639 77 144 9.0 15.0 0.00 0.00 0.00 47 1018.3
20260904083151 77 177 11.0 17.0 0.00 0.00 0.00 46 1018.4
20260904081626 78 132 9.0 15.0 0.00 0.00 0.00 45 1018.3
20260904080137 79 162 9.0 18.0 0.00 0.00 0.00 43 1018.2
20260904074632 79 140 12.0 21.0 0.00 0.00 0.00 42 1018.0
20260904073123 80 128 10.0 17.0 0.00 0.00 0.00 41 1017.9
20260904071641 80 121 9.0 19.0 0.00 0.00 0.00 41 1017.9
20260904070132 80 123 10.0 21.0 0.00 0.00 0.00 41 1017.9
20260904064622 80 143 14.0 20.0 0.00 0.00 0.00 40 1017.9
20260904063139 81 131 8.0 16.0 0.00 0.00 0.00 38 1017.8
20260904061650 81 123 8.0 13.0 0.00 0.00 0.00 37 1017.6
20260904060126 82 145 10.0 20.0 0.00 0.00 0.00 36 1017.5
20260904054638 82 123 11.0 20.0 0.00 0.00 0.00 36 1017.4
20260904053133 81 119 10.0 17.0 0.00 0.00 0.00 38 1017.1
20260904051624 79 184 1.0 3.0 0.00 0.00 0.00 40 1017.1
20260904050158 80 228 0.0 2.0 0.00 0.00 0.00 39 1016.7
20260904044634 80 121 0.0 2.0 0.00 0.00 0.00 38 1016.7
20260904043147 78 237 0.0 0.0 0.00 0.00 0.00 39 1016.7
20260904041621 79 148 0.0 1.0 0.00 0.00 0.00 37 1016.5
20260904040134 82 80 0.0 1.0 0.00 0.00 0.00 33 1016.5
20260904034625 83 80 0.0 1.0 0.00 0.00 0.00 32 1016.4
20260904033140 83 80 0.0 3.0 0.00 0.00 0.00 32 1016.2
20260904031653 84 92 3.0 12.0 0.00 0.00 0.00 31 1016.2
20260904030127 84 109 10.0 17.0 0.00 0.00 0.00 31 1016.1
20260904024638 85 95 13.0 19.0 0.00 0.00 0.00 29 1015.9
20260904023152 84 92 11.0 17.0 0.00 0.00 0.00 31 1015.6
20260904021647 87 139 3.0 13.0 0.00 0.00 0.00 30 1015.2
20260904020139 86 116 11.0 16.0 0.00 0.00 0.00 31 1015.2
20260904014634 87 258 0.0 0.0 0.00 0.00 0.00 26 1014.7
20260904013126 88 258 0.0 0.0 0.00 0.00 0.00 27 1014.8
20260904011622 89 278 2.0 4.0 0.00 0.00 0.00 26 1014.7
20260904010135 90 144 0.0 1.0 0.00 0.00 0.00 25 1014.6
20260904004626 91 143 0.0 1.0 0.00 0.00 0.00 23 1014.6
20260904003123 92 143 1.0 5.0 0.00 0.00 0.00 22 1014.4
20260904001656 93 220 0.0 4.0 0.00 0.00 0.00 21 1014.6
20260904000129 92 305 1.0 11.0 0.00 0.00 0.00 23 1014.6
20260903234640 94 139 9.0 15.0 0.00 0.00 0.00 21 1014.6
20260903233132 94 94 0.0 4.0 0.00 0.00 0.00 20 1014.6
20260903231627 95 119 3.0 11.0 0.00 0.00 0.00 20 1014.6
20260903230140 95 100 5.0 8.0 0.00 0.00 0.00 20 1014.8
20260903224635 94 90 2.0 6.0 0.00 0.00 0.00 20 1014.7
20260903223126 95 224 6.0 9.0 0.00 0.00 0.00 20 1015.0
20260903221702 95 231 2.0 8.0 0.00 0.00 0.00 20 1015.1
20260903220133 95 304 5.0 12.0 0.00 0.00 0.00 20 1015.2
20260903214624 96 258 6.0 11.0 0.00 0.00 0.00 20 1015.3
20260903213201 96 306 5.0 11.0 0.00 0.00 0.00 20 1015.5
20260903211631 95 294 2.0 8.0 0.00 0.00 0.00 21 1015.9
20260903210126 95 258 2.0 15.0 0.00 0.00 0.00 20 1016.1
20260903204640 95 231 1.0 4.0 0.00 0.00 0.00 19 1016.2
20260903203135 95 277 5.0 12.0 0.00 0.00 0.00 20 1016.4
20260903201646 94 158 4.0 11.0 0.00 0.00 0.00 21 1016.4
20260903200138 95 256 4.0 8.0 0.00 0.00 0.00 20 1016.5
20260903194633 94 314 3.0 7.0 0.00 0.00 0.00 22 1016.7
20260903193145 94 293 3.0 6.0 0.00 0.00 0.00 22 1016.8
20260903191641 93 263 4.0 9.0 0.00 0.00 0.00 22 1017.2
20260903190133 93 327 5.0 14.0 0.00 0.00 0.00 23 1017.4
20260903184645 92 73 2.0 5.0 0.00 0.00 0.00 23 1017.8
20260903183140 92 277 3.0 9.0 0.00 0.00 0.00 23 1018.2
20260903181632 92 120 1.0 6.0 0.00 0.00 0.00 24 1018.5
20260903180128 90 66 0.0 6.0 0.00 0.00 0.00 26 1018.8
20260903174639 90 268 1.0 5.0 0.00 0.00 0.00 26 1019.0